353  
NZUS99 KDVN 240710  
HRRRRR  
HOURLY WEATHER ROUNDUP  
NATIONAL WEATHER SERVICE QUAD CITIES IA IL  
200 AM CDT FRI MAR 24 2017  
 
NOTE: "FAIR" INDICATES FEW OR NO CLOUDS BELOW 12,000 FEET WITH  
NO SIGNIFICANT WEATHER AND/OR OBSTRUCTIONS TO VISIBILITY.  
------------------------------------------------------------------  
 
CITY SKY/WX TMP DP RH WIND PRES REMARKS  
BURLINGTON CLOUDY 54 45 71 S16 29.86F  
CEDAR RAPIDS CLOUDY 43 41 93 SE9 29.83S WCI 38  
DAVENPORT PTCLDY 51 42 71 S15 29.88S  
DUBUQUE PTCLDY 41 37 86 S13 29.85F WCI 34  
IOWA CITY CLOUDY 43 39 86 SE3 29.86F  
MOLINE PTCLDY 53 43 68 S6 29.88S  
------------------------------------------------------------------  
THE STATIONS BELOW ARE NOT NWS STATIONS AND ARE NOT SUBJECT TO NWS  
QUALITY CONTROL. SOME STATIONS DO NOT REPORT WEATHER SUCH AS FOG.  
------------------------------------------------------------------  
 
CITY SKY/WX TMP DP RH WIND PRES REMARKS  
CLINTON CLOUDY 43 39 86 SE10 29.89F WCI 37  
FAIRFIELD CLOUDY 55 45 67 S10 29.83R  
FORT MADISON CLOUDY 52 45 76 S12 29.87F  
FREEPORT CLOUDY 42 36 79 SE7 29.92F WCI 37  
INDEPENDENCE CLOUDY 39 37 93 SE8 29.82R WCI 34  
KEOKUK CLOUDY 55 45 67 S9 29.86F  
MACOMB CLOUDY 49 44 83 S8 29.92F WCI 46  
MONTICELLO CLOUDY 41 37 87 SE13 29.84S WCI 34  
MUSCATINE CLOUDY 43 39 87 CALM 29.88R  
SAVANNA MOCLDY 41 36 82 SE7 29.89F WCI 37  
STERLING/R.F. CLOUDY 45 40 82 CALM 29.93R  
VINTON CLOUDY 43 37 81 S16G22 29.80F WCI 35  
WASHINGTON CLOUDY 45 41 87 SE8 29.86R WCI 40  
------------------------------------------------------------------  
 
 
CLICK HERE TO GO TO PREVIOUS BULLETINS.

The Nexlab IL Page
The Nexlab IA Page
The Nexlab MO Page Main Text Page